TimeCDT,TemperatureF,Dew PointF,Humidity,Sea Level PressureIn,VisibilityMPH,Wind Direction,Wind SpeedMPH,Gust SpeedMPH,PrecipitationIn,Events,Conditions,WindDirDegrees,DateUTC
12:52 AM,59.0,52.0,78,30.03,10.0,SSE,10.4,-,N/A,,Clear,160,2012-10-04 05:52:00
1:52 AM,59.0,53.1,81,30.05,10.0,SSE,10.4,-,N/A,,Clear,160,2012-10-04 06:52:00
2:52 AM,57.9,53.1,84,30.06,10.0,SSE,12.7,-,N/A,,Clear,150,2012-10-04 07:52:00
3:52 AM,57.9,53.1,84,30.07,10.0,SSE,10.4,-,N/A,,Clear,160,2012-10-04 08:52:00
4:52 AM,57.9,53.1,84,30.09,10.0,SSE,9.2,-,N/A,,Clear,160,2012-10-04 09:52:00
5:52 AM,57.9,52.0,81,30.12,10.0,SSE,8.1,-,N/A,,Clear,160,2012-10-04 10:52:00
6:52 AM,57.0,52.0,83,30.13,10.0,SSE,10.4,-,N/A,,Clear,160,2012-10-04 11:52:00
7:52 AM,57.0,52.0,83,30.14,10.0,SSE,12.7,-,N/A,,Clear,150,2012-10-04 12:52:00
8:52 AM,61.0,54.0,78,30.15,10.0,South,11.5,-,N/A,,Clear,170,2012-10-04 13:52:00
9:52 AM,66.0,55.0,68,30.15,10.0,South,13.8,-,N/A,,Clear,180,2012-10-04 14:52:00
10:52 AM,70.0,55.0,59,30.15,10.0,SSW,9.2,18.4,N/A,,Clear,200,2012-10-04 15:52:00
11:52 AM,73.9,57.0,55,30.14,10.0,SSW,12.7,-,N/A,,Clear,200,2012-10-04 16:52:00
12:52 PM,75.9,55.9,50,30.13,10.0,SSW,9.2,-,N/A,,Clear,210,2012-10-04 17:52:00
1:52 PM,78.1,55.0,45,30.11,10.0,West,12.7,-,N/A,,Mostly Cloudy,270,2012-10-04 18:52:00
2:52 PM,78.1,55.9,46,30.10,10.0,West,9.2,-,N/A,,Scattered Clouds,280,2012-10-04 19:52:00
3:52 PM,77.0,57.0,50,30.09,10.0,NW,5.8,-,N/A,,Partly Cloudy,310,2012-10-04 20:52:00
4:44 PM,73.4,57.2,57,30.11,10.0,NNW,12.7,-,N/A,,Partly Cloudy,340,2012-10-04 21:44:00
4:52 PM,73.0,57.9,59,30.09,10.0,NNW,13.8,-,N/A,,Scattered Clouds,330,2012-10-04 21:52:00
5:52 PM,71.1,57.9,63,30.11,10.0,North,9.2,-,N/A,,Mostly Cloudy,360,2012-10-04 22:52:00
6:52 PM,66.0,55.0,68,30.13,10.0,North,16.1,-,N/A,,Mostly Cloudy,350,2012-10-04 23:52:00
7:52 PM,64.4,53.6,68,30.15,10.0,North,10.4,-,N/A,,Overcast,10,2012-10-05 00:52:00
8:52 PM,63.0,52.0,67,30.15,10.0,NNE,9.2,-,N/A,,Overcast,30,2012-10-05 01:52:00
9:52 PM,62.1,50.0,65,30.15,10.0,NNW,5.8,-,N/A,,Overcast,330,2012-10-05 02:52:00
10:52 PM,60.1,48.9,67,30.14,10.0,North,10.4,-,N/A,,Overcast,360,2012-10-05 03:52:00
11:52 PM,55.0,46.0,72,30.15,10.0,North,11.5,-,N/A,,Scattered Clouds,360,2012-10-05 04:52:00